Location: Lane
(33.5226°N, 79.8788°W)
Time: 19:15:02
(UTC+00:00)

Explorer 11/Cluster Stage 4 - Pass Details

Date: 02 October 2022
Orbit: 466 x 1247 km, 28.8° (Epoch: 01 December)

Event Time Altitude Azimuth Distance (km) Brightness Sun altitude
Rises 17:29:05 0° 247° (WSW) 4,156 10.5 52.4°
Reaches altitude 10° 17:32:11 10° 243° (WSW) 3,149 10.1 52.3°
Maximum altitude 17:39:48 52° 170° (S) 1,349 9.9 52.0°
Drops below altitude 10° 17:46:19 10° 96° (E) 2,710 9.4 51.7°
Sets 17:48:49 0° 91° (E) 3,541 9.8 51.5°
